STARLINK-32242, 60429

Orbit data source: Space-Track

STARLINK-32242, 60429 is a payload satellite owned by SpaceX/Seattle (US) in LEO that was launched on Mon, 12 Aug 2024 UTC via an FALCON 9 launch vehicle from the Air Force Eastern Test Range (AFETR). Payload-class satellites include a variety of spacecraft equipped with specific instruments for various scientific and technological missions. These include communications satellites like Starlink; space stations such as the ISS; scientific satellites like the Hubble; Earth observation satellites from companies like Planet Labs, Umbra, and HawkEye 360; GPS; miniature CubeSats for education and research; and military/defense satellites.

Loading next visibility...
Identifier
60429, 2024-144E
Orbit
LEO
Country
Flag of USUS
Related business
Manufacturer
SpaceX/Seattle
Mission
Operational Commercial Communications
Bus & Motor
STARLINK V2M, Unknown motor
Mass
730 kg wet, ~700 kg dry
Launch date (UTC)
2024-08-12 (2 years ago)
Launch vehicle
FALCON 9
Launch site
Air Force Eastern Test Range (AFETR)
Object type
Payload
Rocket body
Debris
Shape & HBR
Box + 2 Pan, 17.7 m
Radar Cross Section
33.884 m², Large (>1 m²)

Expand to show TLE details & history
Last TLE update: 21 hours ago

TLE from 21 hours ago
0 STARLINK-32242
1 60429U 24144E   26170.95039790  .00000877  00000-0  41736-4 0  9991
2 60429  53.1605 102.2875 0001443  94.4927 265.6239 15.30197529105006
Epoch: 2026-06-19T22:48Z
TLE epoch observation values (Epoch: 2026-06-19T22:48:34.378Z)
Latitude
Longitude
-148.02776°
Altitude
476.198 km
Speed
7.629 km/s
True Right ascension
06h 49m 09s
True Declination
0° 00' 00"
Sunlit
Object was in daylight at epoch
Visualization orbit readout
Latitude
Unknown
Longitude
Unknown
Altitude
Unknown
Speed
Unknown
Apparent Right ascension
Unknown
Apparent Declination
Unknown
Sunlit
N/A
Visualization observer readout
Local Sidereal Time
07:13:48
Azimuth
Unknown
Elevation
Unknown
Doppler factor
Unknown
Orbital elements
Apogee altitude
476.468 km
Perigee altitude
474.49 km
Semi-major axis
6,853.616 km
Eccentricity
0.00014
Inclination
53.1605°
RAAN
102.2875°
Arg. of periapsis
94.4927°
True anomaly
265.60741°
Mean anomaly
265.6239°
Eccentric anomaly
265.61566°
Mean motion
3.82528 °/min
Orbital period
94.11 mins
BSTAR
0.000041736
Loading maneuver chart data...
Computing Atmospheric mass density...
Loading historical data...
Loading historical data...
Loading historical data...
Loading historical data...
Loading historical data...
Loading historical data...
Loading historical data...

Documentation

Showing up to 5 results
|